Precipitation
CZ | SK | EN 
Station: Seč
River: Chrudimka
Date Water level [m. n. m.] Outflow [m3s-1]
09.05.2026 04:50 485,86 0,98
09.05.2026 04:00 485,86 0,95
09.05.2026 03:00 485,86 0,95
09.05.2026 02:00 485,86 0,96
09.05.2026 01:00 485,85 0,98
09.05.2026 00:00 485,85 0,96
08.05.2026 23:00 485,85 0,98
08.05.2026 22:00 485,85 0,99
08.05.2026 21:00 485,86 0,95
08.05.2026 20:00 485,87 0,92
08.05.2026 19:00 485,89 0,92
08.05.2026 18:00 485,89 0,92
08.05.2026 17:00 485,89 0,94
08.05.2026 16:00 485,89 0,95
08.05.2026 15:00 485,88 0,95
08.05.2026 14:00 485,88 0,96
08.05.2026 13:00 485,88 0,96
08.05.2026 12:00 485,88 0,95
08.05.2026 11:00 485,88 0,97
08.05.2026 10:00 485,88 0,98
08.05.2026 09:00 485,88 0,99
08.05.2026 08:00 485,88 0,98
08.05.2026 07:00 485,88 0,99
08.05.2026 06:00 485,88 0,95
08.05.2026 05:00 485,88 0,95
07.05.2026 07:00 485,91 0,99
06.05.2026 07:00 485,93 0,98
05.05.2026 07:00 485,96 0,96
04.05.2026 07:00 485,98 0,92
03.05.2026 07:00 486,01 0,96
Graf

Graf